Weather History for Crestview, FL

Change the Weather History Date:

Wednesday, December 19, 2012

  Actual Average Record
Temperature  
Mean Temperature 53 °F -  
Max Temperature 71 °F - - ()
Min Temperature 35 °F - - ()
Degree Days  
Heating Degree Days 12    
Growing Degree Days 3 (Base 50)    
Moisture  
Dew Point 49 °F    
Average Humidity 81    
Maximum Humidity 95    
Minimum Humidity 52    
Precipitation  
Precipitation 0.00 in - - ()
Sea Level Pressure  
Sea Level Pressure 30.05 in    
Wind  
Wind Speed 3 mph (SE)    
Max Wind Speed 13 mph    
Max Gust Speed -    
Visibility 10 miles    
Events      
T = Trace of Precipitation, MM = Missing Value Source: NWS Daily Summary

Daily Weather History Graph

Daily Weather History Graph

Search for Another Location

Airport:

Trip Planner

Search our weather history database for the weather conditions in past years. The results will help you decide how hot, cold, wet, or windy it might be!

Date:

Astronomy

Dec. 19, 2012 Rise Set
Actual Time 6:38 AM CST 4:48 PM CST
Civil Twilight 6:11 AM CST 5:15 PM CST
Nautical Twilight 5:41 AM CST 5:45 PM CST
Astronomical Twilight 5:12 AM CST 6:14 PM CST
Moon 11:13 AM CST (12/19) 11:47 PM CST (12/19)
Length of Visible Light 11h 03m
Length of Day
10h 09m
Waxing Crescent, 45% of the Moon is Illuminated
Dec 19
Waxing Crescent
Dec 19
First Quarter
Dec 28
Full
Jan 4
Last Quarter
Jan 11
New

Hourly Weather History & Observations

Time (CST) Temp. Dew Point Humidity Pressure Visibility Wind Dir Wind Speed Gust Speed Precip Events Conditions
12:55 AM 40.8 °F 39.4 °F 95% 30.05 in 10.0 mi Calm Calm - N/A   Clear
1:55 AM 38.7 °F 37.2 °F 95% 30.04 in 10.0 mi Calm Calm - N/A   Clear
2:55 AM 37.2 °F 35.6 °F 94% 30.04 in 10.0 mi Calm Calm - N/A   Clear
3:55 AM 36.5 °F 34.7 °F 93% 30.04 in 10.0 mi Calm Calm - N/A   Clear
4:55 AM 35.6 °F 33.8 °F 93% 30.06 in 10.0 mi Calm Calm - N/A   Clear
5:55 AM 35.4 °F 33.3 °F 92% 30.07 in 10.0 mi Calm Calm - N/A   Clear
6:55 AM 35.4 °F 34.0 °F 94% 30.09 in 10.0 mi Calm Calm - N/A   Clear
7:55 AM 49.1 °F 45.5 °F 87% 30.09 in 10.0 mi Calm Calm - N/A   Clear
8:55 AM 56.8 °F 50.2 °F 78% 30.11 in 10.0 mi NE 1.2 mph - N/A   Partly Cloudy
9:55 AM 64.9 °F 52.2 °F 63% 30.12 in 10.0 mi South 4.6 mph - N/A   Partly Cloudy
10:55 AM 68.9 °F 51.3 °F 53% 30.10 in 10.0 mi South 9.2 mph - N/A   Partly Cloudy
11:55 AM 69.8 °F 51.6 °F 52% 30.08 in 10.0 mi South 9.2 mph - N/A   Partly Cloudy
12:55 PM 70.2 °F 52.5 °F 53% 30.05 in 10.0 mi SSE 5.8 mph - N/A   Partly Cloudy
1:55 PM 71.1 °F 53.1 °F 53% 30.03 in 10.0 mi SSE 5.8 mph - N/A   Scattered Clouds
2:55 PM 69.4 °F 54.0 °F 58% 30.02 in 10.0 mi SSE 12.7 mph - N/A   Scattered Clouds
3:55 PM 67.5 °F 54.5 °F 63% 30.03 in 10.0 mi South 11.5 mph - N/A   Partly Cloudy
4:55 PM 63.5 °F 55.2 °F 74% 30.04 in 10.0 mi SE 4.6 mph - N/A   Partly Cloudy
5:55 PM 60.1 °F 54.9 °F 83% 30.03 in 10.0 mi SE 4.6 mph - N/A   Partly Cloudy
6:55 PM 59.4 °F 54.3 °F 83% 30.03 in 10.0 mi ESE 4.6 mph - N/A   Scattered Clouds
7:55 PM 59.9 °F 54.7 °F 83% 30.02 in 10.0 mi SE 8.1 mph - N/A   Partly Cloudy
8:55 PM 59.0 °F 55.4 °F 88% 30.04 in 10.0 mi SE 8.1 mph - N/A   Partly Cloudy
9:30 PM 59.0 °F 55.4 °F 88% 30.02 in 10.0 mi SSE 5.8 mph - N/A   Mostly Cloudy
9:55 PM 60.1 °F 56.8 °F 89% 30.03 in 10.0 mi ESE 5.8 mph - N/A   Mostly Cloudy
10:26 PM 59.0 °F 57.2 °F 94% 30.01 in 10.0 mi ESE 5.8 mph - N/A   Scattered Clouds
10:55 PM 59.5 °F 57.4 °F 93% 30.01 in 10.0 mi ESE 5.8 mph - N/A   Scattered Clouds
11:43 PM 59.0 °F 57.2 °F 94% 29.99 in 10.0 mi ESE 6.9 mph - N/A   Mostly Cloudy
11:55 PM 59.4 °F 56.8 °F 91% 29.99 in 10.0 mi ESE 6.9 mph - N/A   Mostly Cloudy